Change the Weather History Date:

Wednesday, July 3, 2013

  Actual Average Record
Temperature  
Mean Temperature 84 °F -  
Max Temperature 96 °F 86 °F 105 °F (1970)
Min Temperature 73 °F 57 °F 43 °F (1962)
Cooling Degree Days 19    
Growing Degree Days 34 (Base 50)    
Moisture  
Dew Point 47 °F    
Average Humidity 30    
Maximum Humidity 48    
Minimum Humidity 12    
Precipitation  
Precipitation 0.00 in - - ()
Sea Level Pressure  
Sea Level Pressure 29.94 in    
Wind  
Wind Speed 10 mph (SSW)    
Max Wind Speed 17 mph    
Max Gust Speed 23 mph    
Visibility 10 miles    
Events      
Averages and records for this station are not official NWS values.
T = Trace of Precipitation, MM = Missing Value Source: NWS Daily Summary

Daily Weather History Graph

Daily Weather History Graph

Search for Another Location

Airport or City:

Trip Planner

Search our weather history database for the weather conditions in past years. The results will help you decide how hot, cold, wet, or windy it might be!

Date:

Astronomy

Jul. 03, 2013 Rise Set
Actual Time 5:07 AM PDT 8:47 PM PDT
Civil Twilight 4:29 AM PDT 9:25 PM PDT
Nautical Twilight 3:37 AM PDT 10:16 PM PDT
Astronomical Twilight 2:27 AM PDT 11:26 PM PDT
Moon 1:55 AM PDT (7/3) 4:56 PM PDT (7/3)
Length of Visible Light 16h 56m
Length of Day
15h 39m
Waning Crescent, 17% of the Moon is Illuminated
Jul 3
Waning Crescent
Jul 8
New
Jul 15
First Quarter
Jul 22
Full
Jul 29
Last Quarter

Hourly Weather History & Observations

Time (PDT) Temp. Heat Index Dew Point Humidity Pressure Visibility Wind Dir Wind Speed Gust Speed Precip Events Conditions
12:53 AM 81.0 °F 80.5 °F 54.0 °F 39% 29.95 in 10.0 mi South 9.2 mph - N/A   Clear
1:53 AM 79.0 °F - 54.0 °F 42% 29.96 in 10.0 mi South 11.5 mph - N/A   Clear
2:53 AM 75.9 °F - 53.1 °F 45% 29.96 in 10.0 mi South 10.4 mph - N/A   Clear
3:53 AM 75.0 °F - 52.0 °F 44% 29.96 in 10.0 mi South 8.1 mph - N/A   Clear
4:53 AM 75.0 °F - 52.0 °F 44% 29.98 in 10.0 mi SSW 9.2 mph - N/A   Clear
5:53 AM 73.9 °F - 53.1 °F 48% 29.99 in 10.0 mi South 5.8 mph - N/A   Clear
6:53 AM 78.1 °F - 51.1 °F 39% 30.00 in 10.0 mi SSW 8.1 mph - N/A   Clear
7:53 AM 80.1 °F - 46.9 °F 31% 30.01 in 10.0 mi SW 17.3 mph 23.0 mph N/A   Clear
8:53 AM 80.1 °F - 48.9 °F 34% 30.01 in 10.0 mi WSW 11.5 mph - N/A   Clear
9:53 AM 82.9 °F - 48.9 °F 31% 29.99 in 10.0 mi SW 10.4 mph - N/A   Clear
10:53 AM 86.0 °F - 51.1 °F 30% 29.99 in 10.0 mi WSW 9.2 mph - N/A   Clear
11:53 AM 87.1 °F - 48.9 °F 27% 29.98 in 10.0 mi Variable 6.9 mph - N/A   Clear
12:53 PM 91.0 °F - 46.9 °F 22% 29.96 in 10.0 mi SSW 10.4 mph 17.3 mph N/A   Clear
1:53 PM 91.9 °F - 48.0 °F 22% 29.94 in 10.0 mi South 11.5 mph - N/A   Clear
2:53 PM 93.9 °F - 44.1 °F 18% 29.93 in 10.0 mi WSW 13.8 mph 18.4 mph N/A   Clear
3:53 PM 95.0 °F - 44.1 °F 17% 29.91 in 10.0 mi SW 12.7 mph 18.4 mph N/A   Clear
4:53 PM 95.0 °F - 39.9 °F 15% 29.89 in 10.0 mi WSW 8.1 mph 17.3 mph N/A   Clear
5:53 PM 95.0 °F - 35.1 °F 12% 29.86 in 10.0 mi WSW 11.5 mph - N/A   Clear
6:53 PM 93.9 °F - 33.1 °F 12% 29.85 in 10.0 mi WSW 9.2 mph - N/A   Clear
7:53 PM 91.9 °F - 33.1 °F 12% 29.84 in 10.0 mi SW 4.6 mph - N/A   Clear
8:53 PM 81.0 °F - 51.1 °F 35% 29.85 in 10.0 mi ESE 5.8 mph - N/A   Clear
9:53 PM 73.9 °F - 52.0 °F 46% 29.88 in 10.0 mi SSE 3.5 mph - N/A   Clear
10:53 PM 79.0 °F - 46.9 °F 32% 29.90 in 10.0 mi South 11.5 mph - N/A   Clear
11:53 PM 75.9 °F - 44.1 °F 32% 29.92 in 10.0 mi South 11.5 mph - N/A   Clear